Theta_e
348 347 347 348 351 350 350 352 351 351 351 351 350 349 347 345 344 343 343 343 343 345 346 348 349 350 350 347 345 347 347 349 350 347 348 350 348 345 343 341 339 339 340 341 341 340 340 340 340 341 341 341 338 335 334 335 337 338 339 339 339 339 338 338 337 336 335 335 336 336 337 337 337 336 336 336 336 336 335 332 331 332 334 335 336
348 346 347 347 348 349 350 352 352 350 350 351 351 351 350 348 345 343 342 342 342 342 342 347 348 348 348 345 344 344 344 346 348 349 349 349 349 347 344 343 342 340 338 340 341 341 341 341 341 342 341 342 341 339 337 335 334 335 337 338 338 338 338 338 337 337 335 334 335 335 335 335 336 336 336 337 337 337 336 335 332 331 331 331 332
347 344 345 346 349 351 351 351 352 351 349 350 352 351 351 349 345 343 341 341 341 340 341 344 345 345 345 343 343 343 342 343 344 347 349 349 350 349 345 344 343 342 339 339 341 341 341 341 341 342 341 342 341 341 340 339 337 336 336 336 337 337 338 337 337 336 335 334 334 334 333 333 334 335 336 336 337 337 336 335 333 332 331 331 330
343 342 344 346 348 350 350 349 350 350 347 347 349 349 350 348 343 342 341 341 342 341 340 341 341 342 341 340 341 342 342 342 343 345 348 348 350 349 344 344 344 343 341 340 340 340 341 341 341 341 341 342 342 341 341 340 340 339 338 337 337 337 337 337 336 336 335 335 335 334 334 333 333 334 334 335 336 337 336 334 333 333 332 331 331
341 343 344 346 348 347 347 348 348 347 345 343 345 348 349 349 347 345 342 342 343 342 341 339 339 340 339 338 340 342 341 341 342 344 346 348 348 346 342 344 345 343 342 341 341 340 340 341 341 342 342 342 343 342 341 341 341 341 340 340 339 339 338 337 337 336 336 335 335 335 335 335 335 334 334 334 335 335 334 334 334 334 333 332 331
342 343 344 346 347 346 345 346 345 343 342 342 345 348 348 347 348 347 344 343 343 342 341 340 339 339 338 337 337 341 340 339 340 342 345 347 347 345 342 343 344 343 343 343 343 342 341 340 341 342 342 343 343 342 341 341 341 341 341 341 341 340 339 339 338 338 337 337 336 335 335 336 336 336 335 335 335 334 334 334 335 335 334 333 333
343 344 345 347 347 347 346 345 344 343 342 342 343 346 346 344 344 344 343 343 342 341 341 341 340 339 338 337 336 338 338 337 338 339 342 345 347 347 345 342 343 344 343 343 343 342 340 340 341 341 341 341 342 342 341 340 341 342 341 341 341 340 340 340 339 339 339 338 337 336 336 336 336 336 336 335 335 335 335 336 335 335 335 335 335
343 345 347 348 348 347 347 346 344 344 343 342 342 344 344 344 342 342 342 339 339 340 341 341 340 339 339 338 336 337 337 337 337 338 340 343 346 347 345 343 343 343 342 343 344 343 341 340 340 340 341 340 341 341 340 340 340 341 341 341 341 340 341 341 340 340 339 339 339 338 338 338 337 337 336 336 335 336 336 336 336 336 336 336 336
342 345 347 348 348 347 348 347 345 345 343 342 344 345 344 343 343 342 339 336 336 338 339 340 340 339 338 337 337 338 338 338 337 337 339 342 344 347 346 343 342 342 342 344 345 344 341 340 340 340 340 340 341 341 340 341 340 340 340 341 341 340 340 340 340 340 340 340 340 340 339 339 339 338 338 338 337 337 336 336 337 337 337 337 337
341 344 346 347 346 346 348 348 347 346 344 343 344 345 344 344 343 342 338 337 338 336 335 339 340 339 337 337 339 340 340 339 339 338 339 341 343 347 347 343 343 345 345 346 345 342 341 342 341 340 341 341 341 342 341 341 340 340 340 340 340 340 340 340 340 340 340 340 340 341 341 340 340 340 340 339 339 339 338 337 337 338 338 338 337
340 342 344 345 344 345 347 348 347 346 345 344 344 344 344 344 345 342 337 338 340 337 334 336 339 339 337 339 340 341 341 340 341 340 339 340 342 345 347 345 346 347 347 347 345 342 341 341 341 341 341 341 341 341 341 341 340 339 340 340 340 340 340 341 340 340 340 340 340 341 341 341 341 341 340 340 340 339 339 338 338 338 338 338 338
341 342 344 344 343 346 347 347 347 346 346 345 345 346 345 344 344 340 337 340 341 339 335 335 340 339 338 340 340 339 339 340 341 341 340 340 341 343 347 347 347 347 346 346 346 344 341 341 343 342 341 340 340 339 339 338 338 338 338 340 340 340 341 342 341 341 341 340 340 340 340 341 341 341 340 341 340 340 340 339 338 338 338 338 338
342 344 345 344 344 346 348 348 347 346 346 346 346 346 345 344 341 337 339 342 342 341 336 336 340 339 338 340 340 339 339 339 341 341 340 341 342 344 346 347 346 346 345 344 343 345 344 344 346 344 342 340 338 338 338 338 337 336 336 337 338 339 339 340 340 340 341 340 340 340 340 340 341 341 340 341 341 340 340 339 339 339 339 339 338
344 346 346 346 346 347 348 348 347 347 346 345 345 344 345 345 341 338 340 341 342 341 335 334 339 338 339 340 341 340 338 338 340 341 340 341 343 344 344 343 343 344 343 341 340 341 342 342 344 344 342 340 339 338 339 339 336 333 332 332 335 337 338 338 337 337 337 336 335 334 334 335 337 338 339 340 340 340 340 340 339 339 339 339 339
346 347 347 347 348 349 349 348 348 346 345 346 345 344 346 346 342 342 344 342 342 340 333 335 340 340 340 341 341 340 337 339 340 340 340 341 342 342 341 340 341 341 341 340 339 337 333 332 335 337 338 339 339 338 338 337 331 326 324 324 327 331 331 329 326 324 324 323 322 322 321 322 324 326 328 331 334 336 337 338 339 339 339 339 339
346 347 347 347 347 349 349 349 348 346 345 347 346 346 346 346 344 344 345 343 343 341 336 336 339 340 342 340 339 339 339 340 340 340 340 341 341 341 340 340 340 339 340 338 335 332 327 324 326 328 332 334 335 335 334 330 324 320 319 318 319 321 321 319 318 318 318 317 318 318 317 318 318 318 319 319 321 323 325 328 331 334 335 337 338
345 347 346 346 347 348 349 350 348 346 347 348 347 347 346 346 347 346 344 343 342 343 339 335 337 340 342 342 339 339 339 338 339 340 340 340 340 340 339 339 339 337 337 334 329 329 329 325 323 325 328 330 330 331 328 323 320 318 318 318 318 318 318 318 318 319 319 319 319 319 318 318 318 318 318 317 317 317 317 318 319 320 322 325 329
343 345 346 345 346 347 349 349 348 346 347 349 348 347 347 347 347 345 345 342 337 339 341 337 333 334 337 341 341 341 340 339 339 340 340 340 340 340 339 339 339 337 336 333 330 331 333 330 326 325 326 325 323 323 322 320 320 320 319 319 319 319 319 318 318 318 318 318 318 318 318 318 317 317 317 317 317 318 317 317 317 316 316 316 318
341 343 344 344 345 347 349 349 348 347 348 349 349 348 348 348 347 345 346 340 328 331 341 340 334 332 335 339 341 340 340 340 340 340 341 341 340 339 339 338 339 338 337 336 335 335 334 333 331 326 325 325 322 324 325 322 322 322 322 322 322 322 323 322 321 321 320 319 319 319 319 319 319 319 318 318 317 317 317 317 317 317 316 316 315
339 341 342 342 344 346 348 349 348 348 348 348 349 349 349 349 348 347 345 338 324 324 339 343 339 337 337 338 340 340 338 339 341 340 340 340 340 340 338 338 338 337 337 336 336 336 333 334 335 331 330 329 327 331 331 327 324 325 325 326 326 326 326 326 325 324 323 322 321 321 321 321 321 320 320 319 319 318 318 317 317 317 317 316 316
340 340 342 342 344 346 348 349 348 349 349 348 348 349 348 349 351 348 344 339 326 320 333 343 342 341 340 338 339 340 337 338 340 341 340 340 339 339 338 338 337 337 337 336 336 336 334 334 334 334 333 331 330 332 333 331 328 328 328 328 328 328 328 328 326 325 324 323 323 322 322 322 321 321 321 320 320 319 319 319 319 318 318 317 316
342 340 341 341 343 346 347 348 348 349 349 348 349 349 347 348 351 350 346 341 331 320 328 340 342 342 342 339 339 340 339 339 339 340 341 340 339 338 337 338 338 337 337 336 336 336 336 335 334 335 336 334 332 332 333 333 329 328 329 328 328 329 328 328 327 326 324 324 324 323 323 323 322 322 322 321 320 320 320 321 321 320 320 319 318
341 339 339 340 342 345 346 346 347 349 349 348 348 347 346 348 351 350 348 343 335 323 324 335 341 342 341 339 338 340 340 340 340 340 340 341 340 338 336 337 337 338 338 337 337 336 336 336 335 335 336 336 335 334 333 332 329 328 328 328 328 329 328 329 328 326 325 323 323 323 323 324 324 323 323 322 322 321 321 320 321 321 321 321 320
339 339 338 339 340 342 344 344 344 347 349 349 347 344 346 350 351 351 350 346 338 327 322 328 336 340 340 339 339 339 339 338 339 341 340 340 340 339 337 337 337 337 338 337 337 336 336 336 336 335 336 336 336 334 332 330 329 328 327 328 328 328 328 328 328 326 325 323 323 323 324 324 324 324 324 323 323 322 321 321 320 321 321 321 321
338 338 338 338 338 340 343 342 341 343 345 348 347 344 346 350 350 351 351 347 340 329 321 324 334 339 341 341 341 340 339 337 336 337 339 340 340 340 338 338 338 337 338 338 337 336 336 336 336 336 336 336 336 334 331 332 333 330 328 328 327 328 328 328 327 326 324 324 324 323 324 325 326 326 325 324 323 322 321 321 321 321 321 320 320
338 338 338 337 337 340 341 340 339 340 341 345 347 347 348 349 349 350 351 348 343 332 321 323 331 335 339 341 342 341 340 339 336 334 336 338 339 339 339 339 338 336 337 339 337 336 336 336 336 336 336 335 335 334 332 333 336 332 329 329 328 328 329 328 328 326 325 324 324 324 325 326 327 327 327 326 325 323 322 322 322 321 321 321 321
337 337 337 337 337 338 339 338 338 340 340 341 345 348 349 348 349 350 350 349 347 336 322 321 326 329 331 334 337 340 341 339 338 336 335 336 336 336 338 340 338 335 337 338 338 337 336 336 336 336 335 333 333 333 330 330 333 330 328 329 329 328 328 329 328 326 325 324 323 324 325 326 327 327 327 327 326 325 324 323 322 322 322 321 321
337 337 337 337 337 337 338 338 338 340 341 341 342 346 349 349 348 348 348 348 347 338 323 319 323 325 327 327 328 335 341 340 338 338 337 336 336 336 336 337 337 337 337 338 338 337 336 336 337 336 334 329 329 330 327 328 329 327 327 328 328 328 327 327 327 325 325 324 323 324 325 325 326 326 326 326 327 326 325 324 323 323 323 322 322
337 337 336 336 337 337 338 338 338 340 344 344 341 343 347 348 348 346 345 347 347 340 327 320 319 322 325 324 322 328 336 336 334 336 337 334 335 337 336 335 336 338 339 339 339 338 337 336 335 335 333 327 326 328 326 329 331 327 328 330 330 330 328 325 325 324 324 324 324 324 325 325 325 326 326 326 326 326 326 326 325 324 324 323 323
338 337 337 336 336 337 337 337 338 339 342 344 341 342 345 346 347 346 344 347 347 342 332 324 319 320 323 324 322 322 326 327 328 332 332 329 331 334 335 336 336 337 339 340 339 338 337 336 334 334 334 328 327 330 328 329 330 327 327 329 331 332 328 324 324 324 324 324 324 325 325 325 326 325 326 325 326 326 326 327 327 326 325 324 324
338 337 337 336 336 336 336 336 337 336 338 340 341 342 344 344 346 346 344 346 347 342 335 327 321 318 319 321 321 321 321 322 326 329 328 326 329 333 334 335 334 334 337 339 338 338 336 335 335 336 334 330 330 334 334 332 329 327 326 326 328 328 324 323 324 323 324 324 324 325 325 325 325 325 325 325 325 325 325 326 326 327 327 326 325
337 337 336 336 336 336 336 335 336 335 336 337 339 342 343 343 344 345 345 346 345 343 339 332 325 320 318 319 320 320 320 321 324 328 328 325 327 332 335 335 332 332 335 337 338 338 336 335 335 336 335 331 330 331 332 333 330 325 325 325 325 325 324 326 327 324 324 325 325 325 325 325 325 325 325 324 325 325 325 325 325 325 326 326 326
337 336 336 336 336 335 335 336 335 335 335 336 337 340 341 343 343 343 345 345 344 344 342 337 332 327 320 318 319 319 320 321 322 326 328 326 325 329 334 335 334 334 334 335 337 338 338 336 333 334 335 334 331 327 325 330 331 327 326 326 325 325 326 329 332 330 326 325 325 325 325 325 325 325 325 324 324 324 324 325 325 325 325 325 325
337 336 336 336 336 336 336 336 336 336 336 335 337 338 340 342 343 342 343 343 342 344 343 340 338 336 329 321 318 318 320 321 321 323 329 331 330 330 333 334 336 337 335 333 336 339 339 337 333 332 333 330 329 328 324 328 333 332 329 326 326 327 327 328 332 334 331 327 326 326 325 326 326 326 326 326 326 326 325 325 325 325 325 325 325
340 337 336 336 335 336 336 336 336 336 336 337 336 337 338 340 342 342 342 341 341 342 342 340 339 340 337 330 323 319 318 320 321 322 327 332 333 334 335 334 334 338 337 331 332 337 339 340 336 334 335 331 328 329 327 326 330 332 329 328 330 332 332 330 332 334 333 329 327 327 327 327 328 327 328 328 328 328 327 327 326 325 325 325 325
344 341 338 337 336 336 336 336 336 336 336 337 337 337 338 339 340 341 341 341 341 341 341 340 340 341 341 338 334 326 320 318 318 321 325 328 331 331 332 330 328 333 338 333 328 332 338 341 338 336 337 335 331 331 330 328 328 328 329 332 334 335 335 334 335 335 333 328 326 327 327 328 328 328 328 328 327 328 328 328 328 327 327 327 326
345 344 341 340 339 337 336 335 335 335 335 336 337 337 338 338 339 340 341 341 341 341 341 341 341 342 341 341 340 337 330 323 318 319 322 324 325 326 327 326 324 327 335 336 330 327 331 337 339 337 335 333 331 329 330 331 332 331 331 332 334 334 334 334 336 336 333 329 328 328 327 327 326 325 325 325 325 325 326 327 329 329 329 329 328
345 345 344 342 342 340 337 335 335 334 335 335 335 336 337 338 339 339 339 340 340 342 342 341 341 342 342 341 342 341 339 334 326 320 319 319 321 324 324 324 324 326 331 335 335 332 329 332 336 337 335 333 331 329 328 329 333 336 337 336 337 335 332 331 334 335 334 331 329 327 325 324 324 323 321 322 322 322 323 325 326 327 327 328 328
344 345 345 344 343 342 340 337 335 335 335 335 335 335 335 337 338 339 340 339 340 340 342 342 341 341 342 342 342 342 341 340 337 330 323 319 318 320 322 323 324 327 332 336 337 337 335 334 336 337 337 336 335 335 334 332 331 333 334 336 339 339 335 332 332 333 334 332 329 327 326 323 321 322 320 320 320 321 321 321 321 322 323 324 324
344 344 345 344 344 344 342 340 337 336 336 336 336 335 335 335 336 337 339 340 340 340 340 341 342 341 342 342 342 342 341 340 341 339 333 325 319 317 319 322 324 328 333 337 338 338 338 339 339 338 338 338 337 338 339 335 332 332 333 336 339 340 339 336 333 332 331 329 328 330 330 327 324 324 322 321 323 323 321 319 320 321 322 323 324
343 344 344 345 345 344 344 342 340 339 338 338 336 335 335 334 334 334 336 338 339 340 340 340 341 342 342 342 341 341 341 341 341 342 340 334 327 322 318 319 323 326 330 336 339 338 338 339 340 339 339 339 338 338 338 336 334 335 337 339 339 339 338 338 337 334 329 327 327 329 330 330 328 327 326 326 328 326 323 322 323 324 324 324 324
343 344 343 344 345 345 345 345 344 343 342 339 336 335 334 334 334 333 334 335 337 338 339 339 340 342 342 342 341 340 340 340 341 342 342 341 337 332 324 319 320 323 325 331 337 338 339 340 340 339 340 339 338 338 338 338 338 338 339 340 340 339 338 337 337 337 332 329 329 330 331 331 329 328 328 329 329 327 325 327 327 325 324 323 323
343 344 344 344 345 345 345 345 345 345 344 342 339 337 336 335 335 334 333 333 334 335 337 337 338 339 341 342 341 341 340 340 341 342 343 343 342 340 333 323 319 320 323 327 333 338 340 340 339 339 340 339 339 339 339 340 340 340 340 340 339 339 339 336 336 338 334 329 329 331 332 331 330 330 329 329 329 327 327 328 326 323 322 322 322
343 344 344 344 344 345 345 345 345 345 345 345 344 342 340 338 337 337 336 334 334 334 335 336 336 337 340 340 341 342 341 340 341 342 343 344 343 342 340 330 320 319 321 324 330 337 340 340 340 340 339 339 339 340 340 340 340 340 340 340 337 336 337 336 336 337 336 330 329 332 332 330 330 330 329 329 329 328 327 328 326 323 321 320 321
344 344 344 345 345 345 345 346 346 346 346 346 346 346 345 343 342 341 340 338 335 334 334 335 336 336 338 339 340 341 341 340 341 341 343 344 344 343 343 337 326 318 319 321 324 331 336 339 340 339 339 338 338 339 338 336 337 338 338 339 338 336 336 337 336 335 334 331 331 332 331 330 329 329 329 329 328 327 327 327 324 321 318 316 316
344 344 344 345 345 345 345 346 346 346 346 346 346 347 347 347 346 346 345 343 339 335 334 334 335 336 336 338 339 340 341 341 341 341 343 345 345 344 344 342 333 323 319 319 320 323 329 335 338 339 338 336 336 336 336 334 333 334 336 338 339 339 338 336 333 330 329 330 331 331 330 330 329 328 328 328 327 326 326 325 324 321 317 314 313
345 345 345 345 345 345 345 346 346 346 346 346 347 347 347 348 348 348 348 347 344 339 336 335 335 335 335 336 338 339 341 340 340 341 343 345 346 346 345 345 341 332 323 319 319 320 323 329 335 337 336 334 334 335 335 334 333 333 333 333 333 334 333 331 328 328 330 330 330 330 330 330 329 327 326 325 324 325 325 324 323 321 319 316 313
346 346 345 345 345 346 345 346 346 346 346 346 346 347 347 347 348 349 349 349 348 344 339 338 337 336 336 337 337 338 340 341 341 341 343 346 348 347 346 346 345 340 332 323 320 320 321 326 332 335 335 333 333 336 336 335 334 333 331 329 328 328 329 329 329 331 331 331 329 329 329 330 328 326 324 324 324 324 324 323 322 322 321 317 311
347 346 346 347 346 346 346 346 346 346 346 347 346 347 347 347 348 349 348 349 349 346 343 342 340 338 338 339 338 338 339 340 342 342 342 346 349 349 347 347 346 344 337 328 322 320 322 326 329 331 331 331 331 335 336 335 334 331 328 327 329 331 332 333 333 331 330 330 329 329 329 328 327 325 324 324 323 323 323 322 322 321 319 314 309
346 346 348 349 348 348 347 347 348 348 349 349 347 346 348 348 348 349 348 349 348 346 344 344 342 341 340 341 340 339 338 339 342 343 342 346 349 349 348 347 347 345 340 334 329 325 324 328 330 330 329 330 333 336 336 335 332 328 326 327 331 333 334 334 333 331 329 329 329 327 327 327 326 324 323 323 323 323 323 322 320 318 316 314 312
347 348 350 352 352 351 351 352 352 351 351 353 351 347 347 348 348 349 349 350 349 348 346 345 345 346 345 343 342 339 337 340 343 342 342 345 349 350 349 348 347 346 342 339 337 334 328 328 331 331 331 332 334 336 336 333 329 326 325 325 328 332 333 332 331 330 329 328 327 325 325 325 324 322 322 322 322 322 321 319 318 316 315 314 314
Wind_Speed
7 6 6 6 5 5 3 2 2 1 1 1 2 2 2 2 3 4 4 5 5 5 4 4 1 0 1 0 1 1 1 0 1 2 2 1 2 1 1 2 2 2 1 0 1 1 2 2 2 2 2 2 1 1 2 3 3 4 4 4 4 4 4 4 4 4 3 4 4 4 3 3 2 3 3 3 3 3 4 4 3 2 3 4 5
7 7 7 6 5 5 4 3 2 1 1 1 1 2 2 3 4 4 4 4 5 5 5 4 2 1 1 0 1 1 2 1 1 1 1 1 2 3 2 1 1 2 1 0 1 1 1 2 2 3 2 2 3 2 2 2 3 4 4 5 5 5 5 5 4 4 4 4 4 4 4 3 3 4 3 4 4 4 4 4 3 3 4 5 6
8 8 7 7 6 4 4 3 2 1 1 1 1 1 2 4 4 5 4 4 4 5 4 3 3 2 1 2 2 1 1 2 2 1 0 1 1 2 2 1 2 3 2 0 1 1 1 2 3 3 3 3 3 3 3 3 4 4 5 6 6 6 6 6 6 6 5 5 5 5 4 4 5 5 4 5 5 5 4 4 4 4 4 4 5
9 9 8 7 6 5 4 3 2 2 1 1 1 2 2 4 5 5 4 4 4 5 4 2 2 2 1 1 1 1 1 2 2 2 0 0 1 2 2 2 3 3 3 1 0 1 1 1 3 3 3 4 4 4 4 5 6 6 6 6 7 7 7 8 7 7 6 6 7 6 5 5 6 6 6 6 6 6 5 5 5 5 5 5 5
10 9 9 8 6 6 5 4 3 2 2 2 3 3 2 4 5 5 4 5 5 4 4 2 1 1 1 1 2 1 1 1 2 2 2 1 1 2 2 3 3 3 3 2 1 1 1 2 2 2 3 4 4 4 5 5 7 7 6 7 8 7 8 9 8 7 7 7 8 7 6 6 6 7 7 7 7 7 6 6 6 6 6 6 5
10 10 10 8 7 5 4 4 4 3 3 3 3 3 3 4 4 4 5 4 4 4 3 1 1 1 0 1 2 2 1 1 1 2 2 2 2 2 1 2 1 3 4 2 2 2 2 2 2 2 2 3 4 3 4 5 7 7 7 8 9 9 9 10 9 9 9 9 9 9 8 7 8 8 8 8 8 8 8 8 8 7 7 7 7
11 10 10 9 7 6 5 5 4 3 3 3 3 4 5 5 4 4 4 4 3 4 2 1 0 0 1 1 1 2 1 2 1 2 2 2 3 2 1 2 1 3 4 2 2 3 2 2 2 2 2 3 3 3 3 5 6 6 6 7 8 8 9 10 10 11 10 10 10 10 10 9 9 10 10 10 10 10 10 10 10 9 8 8 9
11 10 10 9 7 6 5 5 5 4 4 4 4 5 5 5 4 3 3 3 3 3 2 1 1 0 1 0 0 1 0 1 2 1 2 0 2 1 1 2 2 2 2 2 2 2 2 2 2 2 1 2 3 3 4 5 6 5 5 5 6 6 6 7 9 10 10 10 11 11 11 11 11 11 12 12 12 11 11 12 11 10 10 10 10
12 11 10 9 7 7 6 5 5 4 5 4 4 4 4 4 4 2 3 4 3 1 2 1 1 1 1 1 1 1 2 1 2 2 2 1 3 2 1 1 2 2 1 1 3 2 1 2 2 2 1 2 3 3 4 5 6 6 5 5 5 4 4 5 6 7 8 10 11 11 11 12 12 12 13 13 13 12 12 12 12 11 11 11 11
13 12 11 10 8 7 7 6 5 5 4 4 4 4 4 4 4 3 3 3 2 1 2 1 2 1 1 1 1 1 2 2 2 2 3 2 2 3 1 1 1 1 3 2 2 3 1 1 2 2 1 1 1 2 2 4 5 5 4 4 4 4 4 3 4 5 6 7 9 10 10 11 12 12 13 13 13 13 13 13 13 12 12 12 12
13 13 12 11 10 8 7 6 5 5 4 4 4 4 4 4 3 3 4 3 1 2 2 1 2 2 2 2 2 2 1 1 1 2 3 3 2 2 2 1 2 2 3 3 1 3 2 2 2 1 0 1 1 1 1 3 4 3 2 2 3 3 3 3 4 4 5 6 7 8 9 10 11 11 12 12 12 12 12 13 13 13 14 14 13
14 13 12 11 11 9 7 7 6 5 4 4 5 4 4 4 3 4 4 3 2 2 2 1 2 3 3 2 2 2 1 1 1 1 3 3 2 2 3 2 3 4 3 4 2 2 3 2 3 3 1 1 1 2 2 2 3 3 2 1 1 1 1 2 3 3 4 5 5 6 7 8 9 10 10 11 11 12 12 12 12 13 13 13 13
14 13 12 12 11 9 8 7 6 5 5 4 4 4 3 2 3 4 3 2 2 2 1 2 3 3 3 2 2 2 1 1 1 2 4 3 2 3 4 4 4 5 4 4 4 2 1 0 1 3 3 0 1 2 3 2 2 3 2 2 2 2 2 1 2 2 2 3 3 4 4 5 6 8 7 8 9 10 11 11 11 11 12 12 12
15 14 13 12 11 10 8 7 7 6 5 5 4 4 3 2 3 3 3 2 2 2 2 3 4 3 3 3 2 1 1 0 1 3 4 3 3 3 4 4 4 4 4 4 4 3 2 2 3 2 2 1 1 2 2 2 3 3 2 2 2 2 1 1 1 1 2 2 2 2 3 3 4 5 5 6 7 8 9 9 10 11 11 12 12
15 14 13 12 11 10 8 8 7 6 6 5 4 4 3 3 3 3 3 3 2 3 3 6 4 2 3 3 3 2 1 1 2 3 3 3 4 4 4 4 4 4 5 5 4 3 2 2 3 3 1 0 1 1 1 1 2 3 3 3 3 3 2 2 2 3 3 3 3 3 4 3 3 4 4 4 5 6 7 7 8 9 10 11 11
17 15 14 13 12 10 9 8 7 6 6 5 5 4 4 3 4 3 3 2 2 3 4 7 6 4 3 2 3 3 2 3 4 3 3 3 4 4 4 4 3 4 5 4 5 5 4 3 2 2 2 2 2 1 1 0 2 4 5 5 5 4 4 3 3 3 3 3 3 3 4 4 4 4 4 4 4 5 6 6 7 7 8 9 10
18 17 15 14 12 11 10 9 8 7 7 6 5 4 4 4 4 3 3 3 2 3 4 6 8 7 5 3 3 3 3 4 4 4 3 3 4 3 4 4 2 4 5 5 5 5 4 3 3 3 3 3 3 3 2 2 3 4 5 5 4 4 3 2 1 1 2 2 3 4 4 4 4 4 4 4 4 5 5 6 6 6 7 7 8
19 18 17 15 13 13 12 10 9 8 7 6 6 5 5 5 4 3 4 4 3 4 5 6 8 8 6 5 3 2 3 2 3 3 3 4 4 3 3 3 3 3 5 4 3 4 4 3 3 3 3 4 5 5 4 3 3 4 4 4 4 4 3 2 2 1 2 3 4 4 4 5 5 5 5 5 5 6 6 6 7 7 7 7 7
20 19 18 16 14 13 13 11 10 9 8 8 7 6 6 5 4 4 4 4 4 5 6 6 7 7 6 5 3 1 1 2 2 3 3 4 4 3 3 4 3 3 4 3 2 2 3 4 3 4 5 6 5 5 4 3 3 4 4 4 4 4 4 4 3 3 3 3 4 4 5 5 5 6 6 6 6 6 6 7 7 8 8 7 7
21 20 19 17 16 14 14 12 11 10 9 9 7 7 7 6 5 4 3 3 4 6 7 6 6 6 6 7 5 5 5 4 3 3 3 4 5 5 4 4 4 3 3 4 4 3 1 3 4 3 4 5 5 6 5 4 4 4 3 4 4 4 4 4 4 4 4 4 4 4 4 5 5 5 6 6 6 6 6 7 7 8 8 8 8
21 21 19 18 17 16 15 14 12 11 10 9 8 8 9 7 5 4 4 3 4 7 9 8 6 5 6 7 6 6 6 6 6 6 5 5 5 5 5 5 4 4 5 4 5 4 2 2 3 3 4 3 4 5 5 4 4 3 3 2 2 3 3 4 5 5 5 4 5 5 5 5 5 6 6 6 6 7 7 8 8 8 8 8 9
20 21 20 19 18 17 16 15 13 12 12 10 9 9 10 9 6 5 5 4 5 7 9 9 8 6 6 6 6 5 6 6 7 7 7 6 5 5 6 6 6 6 6 6 5 5 4 3 2 2 3 4 4 5 5 5 5 4 2 1 0 1 2 3 5 5 6 6 6 6 6 6 6 7 7 7 7 8 8 8 9 9 9 9 9
21 22 21 20 19 18 16 15 14 13 13 12 11 10 10 8 7 7 6 6 5 7 9 10 9 8 8 7 6 5 5 6 6 7 7 6 6 6 5 5 6 6 7 7 7 6 6 6 4 4 5 5 5 5 6 7 7 6 5 4 3 4 4 4 5 6 6 7 7 7 7 7 7 8 8 8 8 8 9 9 9 9 9 9 10
24 23 22 22 21 20 18 17 16 15 14 13 12 11 10 9 8 7 7 6 6 7 9 10 10 9 9 8 7 6 6 6 5 6 7 7 7 7 6 4 4 5 6 7 7 7 7 7 6 7 7 6 6 7 7 7 7 7 7 7 6 7 7 7 7 7 7 7 7 7 7 7 7 8 8 9 9 9 10 10 11 11 11 11 11
26 25 24 23 23 23 22 21 19 18 16 14 13 12 11 10 9 8 8 7 7 7 8 9 10 10 9 9 8 7 7 7 6 6 6 7 7 8 7 5 5 6 6 7 7 8 8 8 8 8 8 8 8 8 7 6 8 9 9 9 9 9 9 9 9 10 9 8 7 7 7 7 7 7 8 8 9 10 10 11 12 12 12 12 12
27 26 25 25 25 24 23 23 22 21 19 16 13 13 13 12 11 9 9 8 8 8 8 9 10 11 11 10 10 9 8 7 7 6 6 7 8 8 7 6 6 6 6 7 8 9 9 9 9 9 10 10 9 10 9 7 9 11 10 11 11 10 10 10 10 11 11 10 9 8 7 7 8 8 8 9 9 9 10 10 11 12 12 13 13
28 27 26 26 26 25 24 24 23 22 21 18 15 15 15 14 12 11 10 9 9 9 9 10 11 11 11 11 11 11 10 9 8 7 7 7 8 8 8 7 7 7 7 7 8 10 9 8 9 9 11 12 11 12 12 9 11 11 10 11 12 11 10 10 11 11 11 11 10 10 9 9 9 9 10 10 10 11 10 10 10 11 12 12 12
29 29 28 27 26 26 25 24 23 22 21 20 18 17 16 15 14 13 12 10 10 10 10 11 12 12 11 12 11 11 11 11 10 9 9 9 8 9 9 8 8 7 7 7 8 9 9 9 9 9 11 11 11 13 11 10 11 10 9 10 12 12 10 9 11 12 11 11 11 11 10 10 10 10 11 12 12 12 12 12 11 11 11 11 11
31 30 30 28 27 26 25 24 24 22 21 20 19 19 18 17 16 16 14 12 11 11 12 12 13 13 13 13 12 12 13 13 12 11 11 11 10 10 10 10 9 8 7 7 7 7 7 8 9 10 11 9 10 12 10 9 10 9 8 10 10 11 11 10 11 12 11 11 11 10 10 11 11 11 12 12 13 14 14 14 14 13 12 12 11
31 31 31 30 28 27 26 25 24 23 21 20 20 20 20 19 18 17 17 14 12 13 14 14 13 14 15 14 13 13 14 14 13 13 13 12 11 11 11 11 11 10 9 8 7 6 7 7 7 9 11 10 8 9 9 9 9 8 8 10 9 10 12 10 10 10 10 10 10 10 10 10 11 11 12 12 13 14 15 15 15 15 15 14 13
32 32 32 32 31 29 28 26 25 25 23 22 21 22 22 21 20 19 18 17 16 15 16 15 15 16 16 15 15 14 14 14 14 14 14 13 12 12 12 12 13 12 11 9 8 8 8 7 6 7 9 9 7 7 8 8 8 7 8 10 10 11 12 11 10 10 10 10 10 10 10 11 11 12 12 13 14 14 15 16 16 16 16 16 16
33 33 33 33 32 31 29 28 27 27 26 24 23 23 23 22 22 21 20 19 18 17 17 16 17 18 18 17 17 16 15 14 15 15 15 14 13 13 13 14 14 13 13 12 10 10 9 8 7 8 9 9 8 8 8 8 9 8 8 10 11 11 10 10 11 11 10 11 11 11 12 12 13 13 14 14 15 15 16 16 16 16 17 17 18
33 34 34 34 33 32 31 30 29 29 28 27 25 25 25 24 23 22 21 22 21 20 19 19 18 19 19 19 19 18 16 16 15 16 16 16 15 15 15 15 14 14 14 14 12 11 10 10 10 9 9 10 9 9 9 9 10 9 8 9 11 11 11 10 11 12 12 12 12 14 14 15 16 16 17 17 17 18 18 18 18 18 18 18 19
34 34 34 34 34 33 32 31 30 30 30 29 27 27 27 25 24 24 23 24 24 22 21 21 20 20 20 19 20 20 19 18 17 17 17 17 16 16 17 16 15 15 15 15 13 12 11 11 11 10 11 12 11 10 10 9 10 11 10 10 10 11 12 11 10 11 14 14 13 15 16 16 17 18 18 19 20 20 21 21 21 20 20 21 20
34 35 35 35 34 34 34 33 32 31 31 30 29 29 29 27 26 25 25 25 26 25 24 23 22 21 21 20 20 21 21 20 19 18 18 18 17 17 18 18 17 16 16 16 15 13 12 11 12 11 11 12 11 11 11 10 11 12 12 11 10 10 11 11 9 10 13 14 13 14 15 16 16 17 17 18 19 21 22 22 23 23 23 23 23
36 36 35 35 36 36 35 35 34 33 32 32 31 31 31 29 28 27 27 26 27 26 26 25 24 23 23 21 21 21 22 22 22 20 20 19 19 19 19 20 19 18 17 17 17 15 13 12 12 12 11 12 11 11 12 12 12 12 11 10 10 10 10 11 9 10 13 13 12 13 15 16 17 17 18 18 19 20 21 23 24 25 25 25 25
38 38 36 36 37 38 38 37 36 35 34 34 33 32 32 31 30 29 29 28 28 28 27 27 26 26 25 23 22 22 22 23 23 23 22 21 21 21 21 20 21 20 19 18 18 17 16 14 13 12 13 13 12 12 13 12 11 11 11 11 11 11 11 10 9 10 13 13 13 14 15 17 18 18 17 18 19 20 21 22 23 24 25 26 26
39 40 39 38 38 39 39 39 38 37 37 36 35 34 33 33 33 32 31 30 29 29 29 28 28 28 27 25 23 23 24 24 24 24 24 23 22 22 22 21 21 21 21 19 17 16 17 17 14 13 14 14 13 13 13 12 11 10 10 10 10 11 12 11 9 10 11 12 13 14 16 17 17 17 17 18 18 20 21 22 23 23 23 24 24
40 40 41 40 39 39 39 40 39 39 39 38 38 37 36 35 35 34 33 32 31 30 30 29 30 30 29 27 26 25 26 25 25 24 24 24 23 23 22 22 22 21 21 20 17 16 17 17 15 15 14 14 14 13 12 13 13 13 12 11 10 11 12 11 11 11 11 13 15 15 16 17 17 17 19 19 19 20 21 22 22 23 23 22 23
40 40 41 41 40 40 39 39 40 40 40 40 40 40 38 38 38 37 35 34 32 31 31 31 31 31 31 30 28 28 28 27 26 25 25 24 24 24 24 23 23 22 22 20 18 18 17 16 15 15 14 14 14 14 14 15 15 14 13 12 11 11 10 11 12 13 12 13 14 14 14 16 16 17 19 19 18 19 20 21 21 21 21 21 21
41 40 40 41 41 41 39 39 39 40 41 42 43 42 41 40 40 39 38 37 35 33 32 32 32 33 33 32 31 31 30 29 28 26 25 24 23 23 24 24 24 24 23 21 19 19 18 17 16 15 15 15 16 16 16 16 15 13 12 12 13 12 11 11 11 14 15 15 15 15 14 14 15 15 16 16 14 16 18 19 18 18 19 19 19
43 42 41 41 43 43 41 40 39 40 42 44 44 44 43 42 41 41 40 39 38 36 35 34 34 34 34 34 34 33 32 31 30 27 25 24 23 22 23 24 24 24 24 23 22 20 19 18 18 16 16 17 16 17 17 15 13 13 12 13 13 12 12 12 10 12 15 16 17 16 14 13 14 14 14 14 14 15 16 16 17 18 19 21 21
44 43 43 43 43 44 44 42 41 41 42 44 44 45 44 43 42 41 41 41 40 39 38 37 36 35 35 36 35 35 35 34 32 29 26 25 24 22 23 24 25 25 25 25 24 22 20 20 18 17 17 17 16 16 15 14 12 12 12 12 12 11 11 12 10 10 14 18 18 16 13 13 13 13 13 13 14 15 15 16 19 19 20 21 21
45 44 44 44 44 45 46 45 44 44 44 43 44 44 43 43 42 42 41 42 41 41 40 40 38 37 36 37 37 37 38 37 35 32 29 27 26 24 24 25 26 25 25 26 25 23 21 20 19 19 18 18 17 16 16 14 12 12 12 12 13 13 12 12 11 9 13 18 19 15 13 13 13 13 14 14 15 17 17 17 19 20 20 21 21
46 46 46 45 45 45 47 48 47 46 45 45 44 44 43 42 41 41 41 42 42 43 43 42 41 39 38 38 39 39 40 39 37 35 31 28 27 26 25 26 27 27 26 27 27 25 23 21 20 20 19 18 18 18 18 16 14 13 13 12 12 13 12 12 12 11 14 18 16 12 12 12 12 13 15 15 16 18 17 18 20 22 22 22 21
48 48 48 47 46 46 47 48 48 47 47 47 46 44 43 42 41 39 39 41 43 44 45 44 43 42 39 38 40 41 42 41 39 37 33 30 28 28 28 28 28 28 28 28 28 28 27 24 22 21 21 20 20 20 20 18 16 15 14 12 12 12 12 13 15 17 17 16 12 9 11 11 10 13 16 15 16 17 16 18 22 24 25 24 23
49 48 48 47 47 47 47 48 48 48 48 48 47 45 44 42 41 39 39 40 42 44 46 46 46 44 41 40 40 41 43 43 41 38 35 31 28 29 30 29 29 29 29 29 29 29 30 29 26 22 22 21 19 19 20 19 18 17 16 14 14 14 15 16 17 17 14 12 12 12 12 11 11 14 16 16 16 16 16 17 21 22 24 25 25
48 48 48 48 47 47 47 47 48 49 48 48 47 46 45 43 41 41 40 40 41 44 46 46 46 45 43 41 42 43 44 44 43 40 36 30 28 29 30 30 29 29 29 30 30 29 29 29 27 24 23 23 22 19 18 18 17 16 15 15 15 15 16 16 15 12 9 10 13 14 12 11 11 14 17 16 16 17 17 16 17 20 23 25 26
48 49 48 48 48 47 47 48 48 49 49 49 48 47 45 44 43 43 43 41 42 44 45 45 45 46 45 41 41 43 44 44 44 42 36 30 28 28 29 30 30 29 29 29 29 29 28 28 28 26 25 26 25 21 18 17 16 15 14 14 13 13 13 13 11 11 9 8 10 11 11 12 13 14 16 16 16 17 17 14 13 17 22 25 25
47 47 47 47 47 47 48 48 48 48 47 48 49 49 47 45 44 44 43 42 43 45 45 46 46 46 45 42 39 41 44 44 44 42 36 30 29 27 25 27 29 29 28 27 26 27 28 28 27 26 25 26 25 21 18 17 16 15 14 14 13 12 12 11 10 10 10 9 11 13 14 14 14 14 14 15 16 15 14 13 14 17 20 21 21
45 46 45 45 45 46 45 43 43 45 44 43 46 49 49 48 47 45 43 43 43 44 46 47 43 39 39 40 38 40 43 43 43 43 37 31 31 29 24 23 26 27 26 25 23 23 27 29 28 26 26 26 24 21 19 18 16 15 15 15 15 13 12 11 10 11 10 11 14 16 15 13 12 12 13 15 16 14 13 14 16 17 17 17 17
Wind_Direction
203 201 201 201 209 206 196 205 211 195 57 360 331 360 355 335 340 341 353 351 344 349 350 357 2 181 152 141 40 30 28 63 283 313 305 277 284 287 7 21 23 13 3 212 213 183 200 204 196 211 227 261 245 174 176 188 197 199 206 211 213 221 219 212 209 206 208 214 222 229 234 240 251 262 273 294 312 327 343 359 1 330 313 313 321
207 204 202 205 210 207 200 205 217 201 150 258 306 352 341 329 339 344 357 357 341 353 5 357 336 246 200 314 20 360 4 10 331 315 295 293 276 274 277 276 341 341 354 13 228 207 216 228 223 215 213 235 244 250 243 221 212 212 221 225 230 237 238 232 230 229 231 236 235 238 251 253 257 262 268 281 293 303 310 325 336 328 317 312 312
205 206 200 205 208 205 206 205 210 234 222 250 290 323 322 323 342 352 355 353 345 359 18 360 332 331 323 345 355 319 5 18 342 329 203 263 273 281 280 259 291 312 321 321 259 265 248 236 238 229 221 224 222 230 242 242 234 226 225 230 235 241 248 243 240 243 243 248 246 242 248 251 254 259 265 274 281 288 287 290 297 303 307 309 311
203 206 200 202 207 204 207 212 214 245 282 300 308 328 330 327 341 355 355 353 353 1 12 3 327 331 331 349 344 295 348 18 350 338 341 245 270 282 282 265 269 293 308 304 303 291 274 252 254 250 235 226 219 224 234 241 246 245 238 239 244 248 255 251 243 243 243 246 247 243 241 245 250 253 258 262 265 272 276 281 288 296 298 296 301
205 208 204 203 208 208 207 222 239 266 301 310 325 337 333 329 338 350 2 5 359 1 8 358 324 339 359 353 331 300 322 352 342 338 15 58 318 288 281 266 256 277 292 283 310 313 285 265 259 256 244 235 232 232 236 242 249 253 250 247 251 252 256 256 250 247 247 247 249 249 245 246 253 255 258 259 259 263 266 272 280 288 292 292 290
206 210 206 204 207 210 213 232 254 278 299 312 329 326 326 335 340 343 1 13 358 354 1 343 340 354 328 348 322 306 309 298 308 330 2 47 23 4 288 254 247 265 271 284 336 319 295 275 272 274 265 254 247 244 246 248 251 256 254 250 253 252 251 253 252 250 251 252 254 256 254 252 257 260 262 261 262 263 263 264 266 272 280 285 286
208 211 205 205 207 209 217 236 260 278 287 305 320 319 336 350 351 352 5 16 357 343 341 300 321 341 301 340 322 316 299 256 265 305 322 28 54 59 149 210 228 265 270 305 326 304 293 275 268 272 278 273 257 258 270 264 257 255 254 255 259 259 256 255 255 255 255 258 259 259 259 258 259 262 263 263 264 265 266 266 266 268 272 275 278
210 212 204 206 211 214 222 238 259 274 281 303 322 330 348 352 347 359 357 351 348 334 314 278 254 245 290 345 350 345 136 237 244 249 277 75 104 85 126 184 207 240 261 298 291 278 282 268 265 266 268 279 274 276 281 279 275 267 266 268 269 268 265 263 259 257 258 260 260 259 261 263 263 263 262 262 264 264 265 266 267 269 271 272 273
212 214 209 211 214 220 229 238 256 272 287 306 324 331 341 338 333 336 330 342 356 328 313 279 229 199 195 160 171 172 134 152 185 197 246 217 142 135 110 166 198 199 142 350 298 280 270 260 268 275 279 285 286 293 286 287 290 287 288 286 281 277 272 270 268 264 261 260 261 260 260 262 262 262 262 263 263 264 265 267 269 271 271 271 272
213 217 216 217 218 223 231 237 251 268 289 300 305 312 321 323 321 311 324 354 6 309 308 245 215 196 175 172 200 195 148 154 169 173 210 220 176 159 155 154 138 126 108 100 290 296 278 246 257 256 273 304 298 312 300 301 301 294 295 291 289 288 280 280 279 274 268 263 261 261 260 260 259 260 261 262 263 265 266 267 269 271 270 270 271
215 219 219 220 221 224 232 238 248 263 279 285 286 292 297 307 312 301 317 344 333 304 295 231 203 192 177 176 230 224 180 174 149 151 179 203 215 169 132 120 125 122 115 121 274 309 292 274 312 273 252 7 360 41 352 328 322 313 319 305 292 291 289 292 283 278 277 268 261 262 263 261 262 263 262 262 264 265 264 265 267 269 270 272 274
216 221 221 220 221 224 230 237 243 253 259 267 276 282 284 298 306 296 312 334 323 319 300 209 178 195 189 194 240 255 278 277 110 142 161 174 213 169 131 140 131 128 125 125 147 281 282 298 345 318 300 73 96 80 54 13 346 341 1 13 325 303 306 311 299 293 289 278 274 275 273 270 270 270 267 265 266 264 263 264 265 267 268 271 274
217 220 221 220 219 223 229 233 239 246 247 251 262 275 277 287 298 294 299 303 298 315 299 174 163 189 196 208 247 272 291 289 174 161 156 164 192 155 137 142 126 120 120 119 129 142 196 181 360 311 309 15 118 79 64 71 59 31 24 45 63 52 42 29 351 337 317 311 315 303 295 289 280 277 276 273 272 270 267 266 266 267 268 270 272
218 218 220 220 219 224 228 229 235 238 244 247 247 258 261 262 283 288 283 268 249 259 227 147 147 176 174 190 219 236 262 288 158 156 153 158 154 138 129 121 114 112 107 97 94 104 139 161 158 215 288 331 8 25 48 74 74 72 75 78 87 82 62 55 41 22 2 358 360 337 332 321 293 294 298 289 283 280 274 270 269 270 270 270 271
218 218 219 221 220 223 224 226 231 233 239 241 241 249 249 256 273 268 260 263 244 242 202 143 139 174 170 170 158 154 158 133 159 154 152 156 140 137 129 115 116 112 97 88 88 99 115 127 151 177 208 204 352 6 23 18 43 80 105 107 108 112 106 88 71 66 55 36 27 14 10 8 353 344 335 316 302 293 288 284 279 278 278 276 274
219 219 219 221 222 221 223 225 227 231 235 233 237 245 246 256 264 243 226 240 232 238 204 157 155 172 172 153 130 142 151 147 163 162 161 161 141 143 137 122 120 111 101 104 111 108 101 100 130 157 166 174 187 193 212 209 80 90 98 100 103 106 101 89 68 56 46 30 21 10 6 6 2 358 352 340 328 317 310 304 297 293 290 286 283
220 220 221 223 224 223 223 224 225 230 231 233 235 236 242 247 248 236 223 227 206 205 212 187 178 181 177 164 141 130 121 132 161 169 175 169 150 157 148 130 137 130 123 131 125 109 98 97 119 143 158 164 165 156 145 114 95 87 87 91 94 97 99 96 74 25 360 350 346 343 342 343 340 336 334 329 324 321 318 314 312 307 301 297 292
222 222 224 225 227 226 225 224 224 228 229 230 233 233 241 240 232 230 222 230 221 198 204 202 195 193 187 186 169 90 80 123 176 170 180 189 173 178 166 146 159 147 131 133 122 104 96 87 97 121 131 134 139 133 119 104 92 85 82 82 81 83 84 76 57 20 358 345 339 340 339 338 337 333 330 325 321 318 315 315 315 313 310 305 300
224 225 226 228 229 229 228 226 224 228 229 229 231 233 241 237 218 218 224 243 242 202 194 202 203 200 201 213 230 255 230 208 202 184 190 204 199 195 186 175 175 158 143 142 146 138 108 95 93 101 114 123 126 121 117 113 100 95 89 83 80 77 73 64 47 26 6 352 346 343 343 344 342 340 338 333 331 327 323 322 320 320 318 313 308
226 228 228 230 232 231 230 228 225 227 228 229 230 230 239 238 212 217 240 251 243 204 188 194 202 202 208 215 226 241 243 240 238 231 222 222 217 208 202 197 191 185 184 170 174 198 152 112 120 120 126 131 130 126 131 132 116 106 94 83 77 70 64 54 40 26 7 351 344 340 339 342 342 340 338 334 330 328 326 323 321 320 318 315 313
228 230 230 231 233 233 232 230 228 227 228 228 230 230 238 241 220 228 258 249 228 207 191 190 193 198 209 209 214 229 237 242 243 240 240 243 225 205 201 203 207 205 204 197 191 200 201 149 144 141 150 153 146 143 146 152 143 129 115 93 70 49 37 27 20 14 3 351 341 335 331 330 330 331 328 326 323 321 319 316 314 312 310 309 308
228 230 231 231 232 234 233 232 230 228 228 227 227 231 238 242 227 227 251 252 226 208 197 194 191 195 205 205 204 210 215 227 235 233 235 244 237 216 205 205 212 210 206 208 203 194 197 205 182 156 175 183 179 174 173 181 186 180 183 198 249 325 334 342 348 351 348 344 337 332 327 323 320 319 319 317 315 313 312 311 310 309 307 304 302
230 232 232 232 232 233 233 233 231 229 230 227 225 231 237 239 230 222 237 252 235 209 202 198 196 198 204 204 200 199 208 216 223 227 228 233 235 229 218 211 216 212 205 209 209 206 212 212 205 206 209 205 203 205 202 205 210 212 221 233 244 266 284 298 309 319 325 326 324 322 320 319 316 315 313 311 309 307 305 305 304 304 304 301 299
231 232 234 233 232 233 232 233 232 230 229 227 225 228 230 232 228 217 223 238 237 219 207 201 201 202 204 207 207 207 218 219 215 222 226 226 228 233 234 228 231 228 221 223 220 219 224 222 218 221 223 221 221 225 227 226 230 232 238 247 254 264 271 277 287 295 303 308 310 311 313 314 314 315 315 314 311 308 306 303 301 300 298 295 292
230 231 233 235 235 233 233 234 236 235 231 228 226 226 226 229 229 220 218 232 240 232 215 203 203 204 203 206 211 213 219 222 217 213 219 225 227 235 241 234 235 236 228 227 228 227 228 227 228 227 228 231 236 248 249 242 250 254 250 254 261 266 271 275 279 285 292 296 298 300 302 304 306 309 312 314 314 313 311 308 305 302 299 295 290
229 230 231 235 237 236 236 238 240 241 239 234 228 227 228 231 235 227 221 228 235 234 223 209 205 205 204 206 210 213 214 216 221 215 212 221 226 231 238 240 241 240 231 229 230 230 230 229 229 230 236 239 240 254 259 245 251 260 254 255 265 269 273 277 280 284 289 291 291 289 289 289 291 294 298 303 307 308 310 310 308 305 302 300 296
231 231 232 233 237 239 240 241 242 243 244 241 234 231 231 233 236 232 224 222 224 230 229 216 212 210 208 211 210 212 215 212 215 217 213 216 222 226 230 236 240 234 230 234 234 232 231 229 229 231 242 247 244 251 260 252 248 257 256 256 263 266 267 271 276 281 284 286 286 283 281 281 282 284 286 290 294 297 300 302 303 304 303 302 299
232 233 233 233 236 239 241 242 242 242 243 242 239 236 235 235 237 237 233 224 219 229 232 223 219 216 214 218 214 211 215 215 212 214 215 213 215 218 218 222 231 233 228 227 232 237 230 225 234 241 247 253 250 249 255 253 252 257 257 255 259 263 264 262 266 273 277 280 281 279 279 279 278 279 280 282 285 288 290 292 294 296 297 297 295
232 233 234 233 233 236 239 240 241 240 238 239 239 238 237 237 238 240 239 231 223 231 236 229 225 222 219 223 222 215 215 219 216 214 217 216 212 213 213 212 219 227 230 230 232 237 228 223 240 255 258 257 253 253 251 245 251 256 253 256 261 267 272 267 263 269 272 275 276 276 276 277 277 277 277 279 281 283 285 285 287 288 289 289 287
230 233 234 234 232 233 235 236 238 239 237 237 240 239 237 237 238 239 238 233 228 233 237 233 229 228 226 227 228 224 222 225 223 221 223 221 214 214 213 211 215 219 225 236 237 233 230 231 242 257 265 264 253 258 260 251 255 259 255 261 264 265 273 276 271 270 271 272 274 275 275 274 275 275 275 277 279 281 283 283 282 282 282 282 280
229 230 232 233 232 231 233 234 236 239 239 238 239 240 239 238 238 237 236 234 232 235 238 235 232 233 231 230 232 230 228 228 225 225 228 225 218 216 215 215 219 218 218 226 233 232 233 235 235 242 259 265 249 244 258 264 269 269 266 272 271 269 276 280 276 273 273 274 274 275 276 276 276 278 279 280 280 280 279 279 279 278 277 277 277
229 229 230 231 231 231 232 233 235 237 239 238 238 240 241 240 238 236 235 234 234 236 239 237 235 237 236 234 236 234 231 229 225 224 229 230 222 217 217 219 221 220 217 218 225 233 235 231 231 237 249 257 249 240 244 256 266 266 266 273 274 276 279 278 276 274 271 273 277 278 278 279 280 282 283 284 284 283 281 279 278 278 277 276 275
230 230 230 230 230 231 231 233 234 236 238 238 237 238 239 239 238 237 235 236 237 236 238 239 237 239 239 237 239 238 235 231 229 226 227 231 228 221 219 221 221 222 221 220 222 230 235 234 235 235 237 241 244 247 247 249 259 265 265 268 272 274 275 272 274 279 278 276 278 280 281 283 285 288 290 291 289 287 285 283 281 280 279 278 277
230 230 230 230 230 230 231 232 233 234 236 237 237 238 238 237 237 237 236 238 238 235 236 238 239 240 242 241 241 242 239 236 233 230 226 227 229 225 223 223 221 222 226 226 223 225 231 238 241 237 236 239 239 244 251 247 248 256 262 269 272 273 273 270 267 275 281 282 281 283 286 288 291 294 295 294 293 290 288 286 284 281 280 279 277
233 231 231 231 231 231 231 232 232 233 235 236 237 238 238 237 236 237 236 238 240 238 237 240 241 242 243 243 243 244 243 242 239 234 228 225 225 226 226 228 226 222 229 233 229 226 228 234 241 237 235 242 241 239 249 252 248 255 266 272 270 266 267 269 267 266 275 284 288 289 292 294 295 296 295 293 292 290 288 286 284 282 280 279 278
235 234 232 232 233 232 232 232 233 234 235 236 236 238 239 238 237 237 237 238 241 241 241 243 243 244 245 245 244 244 245 245 244 240 233 228 228 228 229 234 235 228 228 235 236 231 227 228 237 234 227 234 240 239 245 252 254 258 263 262 261 260 262 268 273 272 278 290 297 295 296 297 296 295 295 294 291 288 287 285 283 282 281 280 278
236 237 235 233 234 235 234 234 234 235 236 236 237 237 239 240 239 238 238 239 240 242 243 243 244 245 245 245 245 245 245 246 246 243 240 235 233 234 233 236 240 235 229 233 238 237 232 228 233 237 233 235 241 243 245 247 249 255 260 260 260 261 263 267 270 274 284 295 299 298 299 298 297 297 296 293 291 290 288 286 284 283 282 281 279
236 238 238 236 236 236 235 235 235 236 237 238 238 238 239 241 241 240 240 240 241 242 242 243 243 245 245 245 244 244 245 247 246 244 243 242 239 239 239 238 240 238 232 231 233 235 236 233 231 235 238 239 242 246 250 248 245 247 254 258 261 265 268 270 268 272 282 291 296 299 300 298 296 297 298 295 292 291 290 288 287 286 283 282 280
236 237 238 238 238 237 237 237 237 237 238 239 240 240 239 241 242 242 241 241 241 241 242 242 243 245 246 246 244 244 245 246 247 245 244 244 243 242 242 242 241 239 234 230 229 228 232 233 231 232 234 235 238 240 245 247 245 248 252 253 257 264 269 273 276 277 281 289 296 300 301 301 300 298 299 299 298 294 291 290 290 289 287 285 282
236 236 237 239 239 239 238 238 238 239 239 241 241 241 240 240 242 242 242 242 241 241 241 241 242 244 247 248 247 246 246 247 247 246 244 245 245 243 242 243 241 238 233 229 228 227 228 229 229 231 230 230 231 229 234 242 243 248 254 255 253 255 261 271 278 282 286 292 297 297 296 299 301 297 296 300 299 296 296 298 296 292 289 288 286
237 236 236 238 240 241 239 238 239 239 240 241 241 241 241 240 241 242 242 242 242 241 242 241 241 243 246 248 249 248 248 248 247 246 245 246 246 244 243 243 240 239 235 230 226 227 228 226 226 228 227 227 227 227 233 239 240 242 245 249 254 258 261 265 271 281 292 302 303 299 293 293 296 295 296 300 299 299 305 307 302 296 294 291 289
237 237 237 238 240 242 242 240 238 239 240 241 241 241 242 241 242 242 243 243 243 243 243 242 241 242 244 246 248 250 250 250 249 247 244 245 246 243 243 243 241 239 237 233 228 227 226 226 226 226 226 227 226 228 233 235 235 240 240 244 254 260 262 266 269 276 290 304 306 299 295 294 296 298 299 298 296 300 306 303 296 294 295 293 291
239 239 239 239 240 242 243 242 240 240 240 242 242 243 242 242 243 243 244 244 244 244 245 244 242 242 243 245 246 248 250 250 249 248 243 242 242 240 239 241 239 238 237 235 232 228 227 227 227 227 228 230 227 226 230 228 226 234 239 242 250 251 252 263 269 270 284 298 300 294 292 294 294 295 298 297 296 300 301 293 290 295 297 296 294
241 242 241 241 241 242 244 244 243 242 242 242 243 244 244 243 243 244 244 245 245 244 245 245 244 242 242 243 245 247 248 248 248 247 243 239 238 237 236 238 238 235 234 234 233 230 229 229 229 229 230 233 231 226 227 229 227 231 237 243 249 251 250 259 266 267 280 291 293 290 291 297 297 296 298 296 294 295 294 289 290 298 302 301 298
243 243 243 242 242 242 243 244 245 244 244 244 243 244 245 244 243 243 244 245 245 244 244 245 245 243 240 241 243 245 247 248 247 247 244 239 236 236 234 235 235 233 232 232 232 230 230 231 232 233 233 235 236 233 234 237 238 240 245 245 247 254 255 258 263 266 273 281 285 286 289 295 298 297 295 294 295 298 299 296 297 303 308 307 303
244 244 244 244 244 243 243 244 245 245 246 246 245 244 245 245 245 244 244 245 245 245 245 245 245 244 241 239 240 244 246 247 246 246 245 241 236 234 233 232 233 233 232 232 232 230 229 230 233 236 236 237 240 240 242 247 248 250 253 245 239 247 253 258 269 276 279 281 283 283 287 292 296 296 295 297 300 302 301 297 298 303 306 307 307
245 246 246 246 246 246 245 246 246 246 246 246 247 246 246 246 246 245 244 245 245 245 245 245 245 245 243 239 238 241 244 246 246 245 244 242 237 232 232 232 233 234 235 234 234 232 230 230 232 235 238 240 242 243 246 249 250 252 255 251 247 252 260 268 278 285 287 283 279 279 282 285 291 296 298 299 297 295 292 292 294 297 300 303 309
245 247 248 248 248 248 248 248 248 248 247 247 248 248 247 247 247 247 246 243 243 243 244 244 245 244 243 240 237 238 241 245 246 245 242 242 239 234 231 232 233 234 237 238 236 233 231 231 231 233 236 239 240 242 245 248 250 251 255 257 258 262 268 274 280 282 277 271 275 281 284 287 295 298 296 294 292 289 289 293 295 294 295 301 310
243 246 248 249 249 250 250 250 250 251 250 250 250 250 249 248 247 247 246 242 241 242 242 242 244 244 243 239 235 235 238 242 245 245 241 238 237 233 229 230 233 233 236 238 236 232 230 231 232 231 232 237 240 243 248 250 250 251 253 257 259 260 262 267 272 274 272 264 268 275 279 285 292 295 293 291 290 289 292 294 292 290 294 304 314
245 246 247 249 251 252 253 252 252 252 253 253 253 252 251 250 248 248 247 244 242 241 241 241 242 243 242 239 234 232 234 239 244 246 242 235 232 229 224 225 230 233 234 232 231 229 227 226 229 231 231 234 239 243 247 247 247 250 254 254 252 246 248 257 264 271 274 268 265 270 277 283 289 292 293 294 293 291 292 291 289 291 299 308 314
249 248 246 246 249 252 253 252 251 252 253 253 253 254 253 251 249 248 247 244 243 242 241 239 239 238 238 238 235 231 231 236 241 243 242 235 229 226 221 219 225 230 229 223 219 223 224 222 223 226 227 230 236 241 246 247 246 249 252 251 248 244 246 256 262 266 274 279 276 276 279 283 287 291 293 295 296 294 291 292 295 299 304 307 308